コワルスキー彗星

C/2012 T6 ( Kowalski )

English version
Home page
Updated on September 14, 2013

---------------------------------------------------------------------

・ プロフィール

発見日 2012年10月15日
発見光度 17.6等
発見者 R. A. Kowalski (Catalina Sky Survey)

・ 写真集

・ 軌道要素

Epoch 2012 Aug. 21.0 TT = JDT 2456160.5
T 2012 Aug. 26.38764 TT                                 MPC
q   1.7750962            (2000.0)            P               Q
n   0.01815725     Peri.  198.09961     +0.91677190     -0.39496024
a  14.3362656      Node   186.22151     +0.39920888     +0.90135894
e   0.8761814      Incl.   33.27635     -0.01271038     -0.17764703
P  54.3
From 131 observations 2012 Oct. 15-2013 Jan. 31, mean residual 0".5.

・ 光度変化

        m1 = 14.5 + 5 logΔ + 10.0 log r

---------------------------------------------------------------------

軌道要素はM.P.E.C. 2013-C52に掲載されたものです。
光度グラフはComet for Windowsで作成したものです。

---------------------------------------------------------------------

Copyright(C) Seiichi Yoshida (comet@aerith.net). All rights reserved.